DateTimeUTC,F1_A11,F1_S11,BsB_S11,BsG_S11,BsR_S11,BbsB_S11,BbsG_S11,BbsR_S11,BaB_A11,BaG_A11,BaR_A11,Tu_S11,T_S11,Uu_S11,U_S11,P_S11,T1_A11
2021-07-20T08:00:00Z,00000200,20000000,,,,,,,-000.09,0000.00,-000.24,19.0,25.4,17.1,11.6,0671.1,31.1
2021-07-20T08:01:00Z,00000200,20000000,,,,,,,-000.17,0000.26,0000.15,19.0,25.4,17.1,11.6,0671.1,31.1
2021-07-20T08:02:00Z,00000200,20000000,,,,,,,0000.22,-000.11,0000.01,19.0,25.4,16.8,11.4,0671.1,31.1
2021-07-20T08:03:00Z,00000200,60000000,,,,,,,0000.97,0000.83,0000.78,19.0,25.4,16.8,11.4,0671.1,31.1
2021-07-20T08:04:00Z,00000200,40000000,0004.44,0003.32,0002.36,0000.70,0000.35,0000.43,0001.23,0000.94,0000.57,19.1,25.3,17.0,11.7,0672.0,31.1
2021-07-20T08:05:00Z,00000200,00000000,0003.77,0003.46,0002.60,0000.68,0000.18,0000.40,0000.80,0001.06,0001.17,19.1,25.2,17.0,11.7,0672.1,31.1
2021-07-20T08:06:00Z,00000200,00000000,0003.68,0003.61,0002.12,0000.73,0000.16,0000.37,0001.14,0001.06,0000.82,19.1,25.2,17.1,11.8,0672.1,31.1
2021-07-20T08:07:00Z,00000200,00000000,0004.90,0003.83,0002.76,0000.70,0000.42,0000.46,0001.59,0001.44,0000.68,19.1,25.2,17.1,11.8,0672.1,31.0
2021-07-20T08:08:00Z,00000200,00000000,0004.97,0003.93,0002.64,0000.85,0000.43,0000.68,0001.15,0000.82,0001.21,19.1,25.2,17.1,11.9,0672.1,31.1
2021-07-20T08:09:00Z,00000200,00000000,0005.18,0004.25,0002.25,0000.73,0000.65,0000.19,0001.03,0001.25,0000.65,19.1,25.2,17.0,11.8,0672.1,31.0
2021-07-20T08:10:00Z,00000200,00000000,0005.56,0004.15,0002.41,-000.12,0000.35,0000.61,0001.22,0001.09,0001.00,19.2,25.2,17.0,11.8,0672.0,31.1
2021-07-20T08:11:00Z,00000200,00000000,0005.58,0004.26,0002.87,0000.65,0000.83,0000.90,0001.67,0001.39,0000.67,19.2,25.2,17.0,11.8,0672.1,31.1
2021-07-20T08:12:00Z,00000200,00000000,0005.47,0004.48,0002.24,0000.70,0000.59,0000.09,0001.50,0001.25,0001.30,19.2,25.2,17.1,11.9,0672.0,31.1
2021-07-20T08:13:00Z,00000200,00000000,0005.64,0004.04,0002.55,0000.96,0000.37,0000.40,0000.77,0001.44,0000.93,19.2,25.2,17.2,11.9,0672.1,31.1
2021-07-20T08:14:00Z,00000200,00000000,0004.38,0004.00,0002.55,0000.92,0000.67,0000.23,0001.91,0001.12,0000.92,19.2,25.2,17.1,11.9,0672.1,31.1
2021-07-20T08:15:00Z,00000200,00000000,0005.18,0004.01,0002.41,0000.70,0000.30,0000.59,0000.85,0001.11,0000.86,19.1,25.2,17.1,11.8,0672.1,31.1
2021-07-20T08:16:00Z,00000200,00000000,0004.88,0003.93,0002.51,0000.77,0000.36,0000.60,0001.53,0001.16,0001.20,19.2,25.2,17.1,11.9,0672.1,31.1
2021-07-20T08:17:00Z,00000200,00000000,0005.34,0003.72,0002.39,0000.77,0000.43,0000.20,0001.68,0001.24,0000.78,19.2,25.2,17.2,11.9,0672.1,31.0
2021-07-20T08:18:00Z,00000200,00000000,0004.72,0004.07,0002.37,0000.38,0000.22,0000.52,0001.04,0001.10,0001.02,19.2,25.2,17.1,11.9,0672.0,31.0
2021-07-20T08:19:00Z,00000200,00000000,0005.17,0004.01,0002.67,0000.88,0000.54,0000.24,0001.14,0001.21,0000.79,19.1,25.2,17.1,11.9,0672.1,31.1
2021-07-20T08:20:00Z,00000200,00000000,0004.89,0004.02,0002.24,0000.51,0000.62,0000.11,0001.26,0000.93,0000.83,19.1,25.2,17.2,11.9,0672.1,31.1
2021-07-20T08:21:00Z,00000200,00000000,0004.76,0003.54,0002.52,0001.21,0000.52,0000.35,0000.85,0001.15,0000.89,19.2,25.2,17.1,11.8,0672.0,31.1
2021-07-20T08:22:00Z,00000200,00000000,0003.73,0002.94,0002.00,0000.59,0000.29,0000.38,0000.52,0000.49,0000.25,19.2,25.2,16.9,11.7,0672.0,31.1
2021-07-20T08:23:00Z,00000200,00000000,0002.78,0003.00,0001.97,0000.98,0000.24,0000.44,0001.29,0000.62,0000.69,19.2,25.2,16.7,11.6,0671.9,31.1
2021-07-20T08:24:00Z,00000200,00000000,0003.12,0001.75,0001.57,0000.88,0000.40,0000.26,-000.15,0000.25,0000.03,19.2,25.2,16.3,11.3,0671.9,31.0
2021-07-20T08:25:00Z,00000200,00000000,0002.61,0001.71,0001.12,0000.60,-000.03,0000.39,0000.70,0000.29,0000.45,19.2,25.2,16.2,11.2,0671.9,31.0
2021-07-20T08:26:00Z,00000200,00000000,0002.50,0001.76,0001.19,0000.86,0000.37,0000.17,-000.05,0000.41,0000.32,19.2,25.2,16.1,11.2,0671.9,31.1
2021-07-20T08:27:00Z,00000200,00010000,0001.79,0001.61,0001.00,0000.50,0000.08,0000.18,0001.08,0000.68,-000.09,19.2,25.2,16.0,11.1,0672.0,31.0
2021-07-20T08:28:00Z,00000200,00000000,0001.92,0001.46,0000.84,0000.10,-000.05,0000.22,0000.08,0000.21,0000.25,19.2,25.2,16.1,11.2,0672.0,31.0
2021-07-20T08:29:00Z,00000200,00000000,0001.34,0001.47,0000.85,0000.27,0000.08,0000.06,0000.42,0000.29,0000.61,19.2,25.2,16.0,11.1,0672.0,31.0
2021-07-20T08:30:00Z,00000200,00000000,0001.69,0001.23,0000.71,0000.94,0000.33,0000.07,0000.37,0000.44,0000.40,19.2,25.2,16.0,11.1,0672.0,31.0
2021-07-20T08:31:00Z,00000200,00000000,0001.59,0001.17,0000.70,-000.04,0000.30,0000.15,0000.51,0000.36,-000.04,19.2,25.1,15.8,11.0,0672.0,31.0
2021-07-20T08:32:00Z,00000200,00000000,0001.23,0001.26,0000.48,-000.30,0000.26,0000.08,0000.09,0000.22,0000.24,19.2,25.1,16.0,11.1,0671.9,31.0
2021-07-20T08:33:00Z,00000200,00000000,0001.41,0000.76,0000.80,-000.08,0000.20,0000.15,0000.26,0000.55,0000.30,19.2,25.2,15.9,11.0,0671.9,31.1
2021-07-20T08:34:00Z,00000200,00000000,0000.98,0000.94,0000.24,0000.45,0000.04,0000.08,0000.23,-000.33,-000.12,19.2,25.1,15.9,11.0,0671.9,31.0
2021-07-20T08:35:00Z,00000200,00000000,0000.96,0001.26,0000.60,0000.36,0000.18,0000.18,0000.26,0000.75,0000.42,19.2,25.2,15.9,11.0,0672.0,31.1
2021-07-20T08:36:00Z,00000200,00000000,0001.33,0000.97,0000.53,0000.93,0000.18,0000.40,0000.85,0000.38,0000.45,19.2,25.2,16.0,11.1,0671.9,31.1
2021-07-20T08:37:00Z,00000200,00000000,0001.29,0000.83,0000.96,0000.07,0000.10,0000.25,0000.23,0000.32,0000.22,19.2,25.2,16.1,11.1,0672.0,31.0
2021-07-20T08:38:00Z,00000200,00000000,0001.50,0001.30,0000.77,-000.06,0000.10,0000.20,0000.28,0000.36,0000.19,19.2,25.2,16.2,11.3,0672.0,31.1
2021-07-20T08:39:00Z,00000200,00000000,0000.88,0000.79,0000.33,0000.31,-000.17,0000.03,0000.51,0000.33,0000.19,19.2,25.2,16.3,11.3,0672.0,31.1
2021-07-20T08:40:00Z,00000200,00000000,0001.71,0001.10,0000.42,0000.48,-000.21,0000.07,0000.46,0000.57,0000.31,19.2,25.2,16.2,11.2,0672.0,31.1
2021-07-20T08:41:00Z,00000200,00000000,0001.28,0001.32,0000.75,0000.57,0000.08,0000.20,0000.60,0000.06,0000.89,19.2,25.1,16.2,11.2,0671.9,31.1
2021-07-20T08:42:00Z,00000200,00000000,0001.42,0000.98,0000.75,0000.04,0000.08,0000.13,-000.20,0000.21,-000.42,19.2,25.2,16.2,11.2,0671.9,31.0
2021-07-20T08:43:00Z,00000200,00000000,0001.64,0001.00,0000.80,0000.39,0000.08,0000.25,0000.48,0000.75,0000.53,19.2,25.2,16.3,11.3,0671.9,31.0
2021-07-20T08:44:00Z,00000200,00000000,0001.05,0001.17,0000.55,0000.02,0000.35,-000.20,0000.86,0000.32,0000.57,19.2,25.2,16.3,11.3,0672.0,31.1
2021-07-20T08:45:00Z,00000200,00000000,0001.13,0001.30,0000.53,0000.33,0000.25,0000.40,0000.35,0000.41,0000.19,19.2,25.1,16.5,11.4,0672.0,31.1
2021-07-20T08:46:00Z,00000200,00000000,0002.07,0001.55,0000.71,-000.07,0000.26,0000.18,0000.26,0000.03,0000.44,19.2,25.2,16.4,11.4,0671.9,31.1
2021-07-20T08:47:00Z,00000200,00000000,0001.43,0001.39,0000.77,0000.39,0000.10,0000.08,0000.47,0000.66,-000.02,19.2,25.1,16.5,11.4,0671.9,31.1
2021-07-20T08:48:00Z,00000200,00000000,0000.79,0001.33,0000.83,0000.58,0000.09,-000.18,0000.52,0000.40,0000.21,19.2,25.1,16.5,11.4,0671.9,31.1
2021-07-20T08:49:00Z,00000200,00000000,0001.81,0001.34,0000.83,-000.61,0000.26,0000.23,0000.14,-000.01,0000.27,19.2,25.1,16.4,11.4,0671.8,31.0
2021-07-20T08:50:00Z,00000200,00000000,0001.56,0001.34,0000.86,0000.26,0000.23,0000.20,0000.51,0000.45,0000.30,19.2,25.1,16.3,11.3,0671.9,31.0
2021-07-20T08:51:00Z,00000200,00000000,0001.52,0001.46,0000.98,0000.39,0000.07,0000.11,0000.40,0000.63,0000.64,19.2,25.1,16.4,11.4,0671.9,31.1
2021-07-20T08:52:00Z,00000200,00000000,0001.74,0001.42,0001.12,0000.28,0000.32,0000.28,0000.45,0000.41,0000.07,19.2,25.1,16.5,11.5,0672.0,31.0
2021-07-20T08:53:00Z,00000200,00000000,0001.52,0001.33,0001.02,0000.02,-000.17,0000.34,0000.73,0000.36,0000.41,19.2,25.1,16.5,11.4,0672.0,31.0
2021-07-20T08:54:00Z,00000200,00000000,0001.11,0001.54,0000.66,0000.68,0000.23,0000.00,0000.28,0000.68,0000.50,19.2,25.1,16.6,11.5,0672.0,31.0
2021-07-20T08:55:00Z,00000200,00000000,0001.29,0001.55,0000.92,-000.36,-000.12,-000.18,0000.50,0000.18,0000.18,19.2,25.1,16.6,11.5,0672.0,31.1
2021-07-20T08:56:00Z,00000200,00000000,0001.79,0001.60,0000.85,0000.53,0000.35,0000.11,0000.20,0000.43,0000.33,19.2,25.1,16.7,11.6,0672.0,31.1
2021-07-20T08:57:00Z,00000200,40000000,,,,,,,0000.31,-000.15,-000.13,19.2,25.2,17.3,12.0,0672.0,31.0
2021-07-20T08:58:00Z,00000200,60000000,,,,,,,-000.09,-000.06,-000.06,19.0,25.3,16.7,11.3,0671.0,31.1
2021-07-20T08:59:00Z,00000200,20000000,,,,,,,-000.61,-000.04,-000.01,19.0,25.4,16.7,11.3,0670.9,31.1
